カタログに戻る

SL-16 DEB

運用中LEO
NORAD 22493·DEBRIS·🇷🇺 Russia

打ち上げ Dec 25, 1992 から Baikonur Cosmodrome

Loading…

次のパス (今後24時間)

TLE

最新Source: Space-Track

元期: Sep 13, 2026, 18:02 UTC

1 22493U 92093GC  26256.75143751  .00000710  00000-0  17202-3 0  9990
2 22493  71.0391  17.7858 0093231  31.2138 329.4494 14.54032221783899

AllMySatでSL-16 DEBをリアルタイム追跡

Download on the App Store